Temp
1 1 1 1 2 2 2 1 1 1 1 1 1 1 1 1 1 1 1 1 1 1 1 1 1 1 1 1 1 1 1 1 1 1 1 1 1 1 1 1 1 1
0 1 1 1 1 2 2 1 1 1 1 1 1 1 1 1 1 1 1 1 1 1 1 1 1 1 1 1 0 0 0 1 1 1 1 1 1 1 1 1 1 1
0 0 0 1 1 1 1 1 1 1 1 1 1 1 1 1 1 1 0 0 0 0 0 0 0 0 0 0 0 0 0 0 0 0 0 1 1 1 1 1 1 1
-0 0 0 0 0 0 1 1 1 1 1 0 0 0 1 1 1 1 1 0 0 0 0 0 0 0 0 -0 -0 0 0 0 0 0 0 0 0 0 0 0 0 0
-0 0 0 0 0 0 0 1 1 1 1 1 1 1 0 0 0 0 0 0 0 0 0 0 0 -0 -0 -0 -0 -0 -0 -0 -0 -0 -0 -0 -0 -0 -0 -0 -0 -0
0 0 0 0 0 -0 -0 0 1 1 1 1 1 1 1 0 0 0 0 1 1 1 1 1 0 0 -0 -0 -0 -0 -0 -0 -0 -0 -0 -0 -0 -0 -0 -0 -0 -0
0 0 0 0 0 -0 -0 -0 0 0 0 1 1 1 1 1 1 1 1 1 1 1 0 0 0 0 0 0 -0 -0 -0 -0 -0 -0 -0 -0 -0 -0 -0 -0 -0 -0
1 0 0 0 0 -0 -0 -0 -0 -0 -0 0 0 1 1 1 1 1 1 0 0 0 0 0 0 0 0 0 0 0 0 -0 -0 -0 -0 -0 -0 -0 -0 -0 -0 -0
0 0 0 -0 -0 -0 -0 -0 -0 0 -0 -0 0 0 0 0 0 0 0 0 0 0 0 -0 0 0 0 0 0 0 0 0 0 0 0 -0 -0 -0 -0 -0 -0 -0
0 -0 -0 -0 -0 -0 -0 -0 -0 -0 0 0 0 -0 -0 -0 -0 0 0 0 0 0 0 -0 -0 0 0 0 0 0 0 0 0 0 0 0 -0 -0 -0 -0 -0 -0
-0 -0 -0 -0 -0 -0 -0 -0 -0 -0 -0 -0 -0 -0 -1 -0 -0 -0 0 0 0 0 -0 -0 -0 0 0 0 0 0 0 0 -0 -0 -0 -0 -0 -0 -0 -0 -0 -0
0 0 0 0 0 -0 -0 -1 -1 -1 -1 -0 -0 -1 -1 -1 -1 -0 -0 -0 0 -0 -0 -0 -0 0 0 0 0 0 0 0 0 -0 -0 -0 -0 -0 -0 -0 -0 -0
-0 -0 -0 -0 -0 -0 -0 -1 -1 -1 -0 -0 -0 -1 -1 -1 -1 -0 -0 -0 -0 -0 -0 -0 0 0 0 -0 -0 0 0 0 0 -0 -0 -0 -0 -0 -0 0 0 0
-0 -0 -0 -1 -1 -0 -0 -0 -0 -0 -0 -0 -1 -1 -1 -1 -1 -0 -0 -0 -0 -0 -0 -0 0 0 0 -0 -0 0 0 -0 -0 -0 -0 -0 -0 -0 0 0 0 0
-0 -0 -0 -0 -0 -0 -0 -0 -0 -0 -0 -0 -0 -0 -0 -0 -0 -0 -0 -0 -0 -0 -0 -0 0 0 0 -0 -0 -0 -0 -0 -0 -0 -0 -0 0 0 0 1 1 1
-1 -0 -0 -0 -0 -0 -0 -0 -0 -0 -0 -0 -0 -0 -0 -0 -0 -0 0 0 -0 -0 -0 -0 -0 -0 -0 -0 -0 0 0 0 0 0 0 0 0 1 1 1 1 1
-1 -1 -1 -1 -1 -1 -0 -0 -0 -0 -0 -0 -0 -0 -0 -0 -0 -0 -0 -0 -0 -0 -0 -0 -0 -0 -0 -0 -0 -0 0 0 0 0 0 0 0 1 1 1 1 0
-1 -1 -1 -1 -1 -1 -1 -1 -1 -1 -1 -1 -1 -1 -1 -0 -0 -0 -0 -0 -0 -0 -0 -0 -0 -0 -0 -0 -1 -0 -0 -0 -0 0 0 0 0 -0 -0 -0 0 -0
-2 -2 -2 -2 -2 -1 -1 -1 -1 -1 -1 -1 -1 -1 -1 -1 -1 -1 -1 -1 -1 -1 -1 -1 -0 -0 -0 -1 -1 -1 -1 -1 -1 -1 -0 -1 -1 -1 -1 -1 -1 -1
-3 -2 -2 -2 -2 -2 -2 -2 -2 -2 -2 -2 -1 -1 -1 -1 -1 -1 -1 -1 -1 -1 -1 -1 -1 -1 -1 -1 -1 -1 -1 -1 -1 -1 -1 -1 -1 -1 -2 -2 -2 -2
-3 -3 -3 -3 -3 -3 -3 -3 -3 -3 -3 -3 -2 -2 -2 -2 -2 -2 -2 -2 -2 -2 -2 -2 -2 -2 -2 -2 -2 -2 -2 -2 -2 -1 -1 -1 -2 -2 -2 -2 -2 -2
-3 -3 -3 -3 -3 -3 -3 -3 -3 -3 -3 -3 -3 -3 -3 -3 -3 -3 -3 -2 -2 -2 -2 -2 -2 -2 -2 -2 -2 -2 -2 -2 -2 -2 -2 -2 -2 -2 -2 -2 -2 -3
-3 -4 -4 -4 -3 -3 -3 -3 -3 -3 -3 -3 -3 -3 -3 -3 -3 -3 -3 -3 -3 -3 -3 -3 -3 -3 -3 -2 -2 -2 -2 -2 -2 -2 -2 -2 -2 -2 -2 -3 -3 -3
-4 -4 -4 -4 -4 -4 -4 -4 -3 -3 -3 -3 -3 -3 -3 -3 -3 -3 -3 -3 -3 -3 -3 -3 -3 -3 -3 -3 -3 -3 -2 -2 -2 -2 -2 -2 -3 -3 -3 -3 -3 -3
-4 -4 -4 -4 -4 -4 -4 -4 -4 -4 -4 -3 -3 -3 -3 -3 -3 -3 -3 -3 -3 -3 -3 -3 -3 -3 -3 -3 -3 -3 -3 -3 -3 -3 -3 -3 -3 -3 -3 -4 -4 -4
-4 -4 -4 -4 -5 -5 -5 -4 -4 -4 -4 -4 -4 -4 -4 -4 -4 -4 -4 -4 -3 -3 -3 -3 -3 -3 -3 -3 -3 -3 -3 -3 -3 -3 -3 -3 -3 -3 -3 -4 -4 -4
Height
3126 3126 3127 3128 3129 3131 3132 3132 3132 3132 3131 3131 3130 3129 3128 3127 3127 3127 3126 3126 3126 3126 3126 3126 3125 3125 3125 3125 3125 3125 3125 3125 3125 3125 3125 3125 3125 3125 3125 3126 3126 3126
3125 3124 3125 3126 3128 3130 3131 3132 3132 3132 3132 3131 3131 3130 3129 3128 3127 3127 3127 3127 3127 3127 3127 3126 3126 3126 3126 3126 3126 3126 3126 3126 3125 3125 3125 3125 3125 3125 3125 3125 3125 3126
3122 3123 3123 3125 3127 3129 3131 3132 3133 3133 3132 3132 3131 3130 3130 3129 3128 3127 3127 3127 3127 3127 3127 3127 3127 3127 3127 3127 3126 3126 3126 3126 3126 3126 3126 3125 3125 3125 3125 3125 3125 3126
3120 3121 3123 3124 3125 3128 3130 3131 3133 3133 3132 3132 3131 3131 3130 3129 3129 3128 3128 3127 3127 3128 3128 3128 3128 3128 3128 3127 3127 3127 3127 3127 3127 3126 3126 3126 3126 3126 3126 3126 3126 3126
3118 3120 3122 3122 3124 3126 3128 3130 3131 3132 3132 3132 3131 3131 3130 3130 3129 3129 3128 3128 3128 3128 3128 3128 3128 3128 3128 3128 3128 3128 3128 3127 3127 3127 3127 3127 3127 3126 3126 3126 3126 3126
3115 3118 3119 3120 3121 3124 3126 3128 3129 3130 3131 3130 3130 3130 3130 3129 3129 3129 3128 3129 3129 3129 3129 3129 3129 3129 3129 3128 3128 3128 3128 3128 3128 3127 3127 3127 3127 3127 3127 3127 3126 3126
3110 3114 3116 3118 3119 3121 3124 3126 3127 3127 3128 3128 3128 3128 3128 3128 3128 3128 3128 3129 3129 3129 3128 3128 3128 3128 3129 3129 3129 3128 3128 3128 3128 3128 3127 3127 3127 3127 3127 3127 3126 3126
3108 3110 3113 3115 3117 3118 3120 3122 3123 3124 3124 3125 3125 3125 3126 3126 3126 3126 3127 3127 3127 3128 3127 3127 3127 3127 3128 3128 3128 3128 3128 3128 3128 3127 3127 3127 3127 3127 3126 3126 3126 3126
3107 3108 3110 3112 3114 3115 3117 3119 3120 3120 3121 3122 3122 3122 3123 3123 3123 3124 3124 3124 3125 3125 3125 3125 3125 3126 3127 3127 3127 3127 3126 3126 3126 3126 3126 3126 3125 3125 3125 3125 3125 3125
3105 3107 3108 3110 3111 3113 3114 3116 3116 3118 3119 3119 3118 3119 3119 3120 3121 3121 3121 3121 3121 3121 3122 3122 3123 3123 3124 3125 3125 3125 3124 3124 3124 3124 3124 3124 3124 3124 3124 3124 3123 3123
3103 3104 3104 3106 3107 3108 3110 3113 3114 3115 3116 3114 3113 3114 3115 3116 3117 3118 3118 3118 3118 3117 3117 3118 3119 3120 3121 3121 3122 3122 3122 3122 3122 3122 3122 3122 3123 3123 3122 3122 3122 3122
3102 3103 3103 3103 3103 3104 3107 3110 3111 3111 3111 3110 3110 3110 3111 3112 3114 3114 3115 3115 3115 3114 3113 3114 3115 3116 3117 3118 3118 3118 3119 3120 3120 3120 3121 3121 3121 3120 3120 3120 3120 3120
3103 3104 3104 3104 3104 3105 3106 3108 3108 3108 3107 3108 3107 3106 3107 3109 3110 3111 3111 3111 3111 3111 3111 3111 3112 3113 3114 3114 3114 3114 3115 3116 3117 3118 3118 3119 3118 3118 3118 3118 3118 3118
3103 3103 3104 3104 3105 3106 3106 3106 3105 3105 3105 3105 3103 3103 3105 3107 3108 3108 3109 3109 3109 3109 3109 3109 3110 3111 3112 3112 3112 3111 3111 3112 3113 3114 3115 3116 3116 3115 3115 3115 3115 3115
3102 3103 3103 3103 3104 3104 3104 3104 3103 3103 3102 3102 3101 3103 3104 3106 3106 3107 3107 3107 3107 3106 3106 3107 3108 3109 3110 3110 3110 3109 3109 3110 3111 3111 3112 3112 3112 3112 3112 3112 3112 3112
3100 3101 3101 3102 3102 3102 3102 3102 3102 3102 3102 3101 3101 3102 3103 3104 3105 3105 3105 3105 3105 3104 3105 3105 3106 3106 3107 3107 3107 3107 3107 3108 3108 3108 3109 3109 3109 3108 3108 3108 3108 3108
3097 3098 3098 3099 3100 3100 3100 3101 3101 3101 3100 3100 3101 3101 3101 3102 3102 3103 3103 3103 3102 3102 3102 3103 3103 3103 3103 3103 3103 3104 3104 3105 3105 3105 3105 3105 3105 3104 3104 3104 3104 3103
3094 3095 3095 3096 3097 3097 3098 3098 3098 3099 3098 3098 3098 3098 3099 3099 3099 3099 3099 3099 3099 3099 3099 3100 3100 3100 3100 3100 3100 3100 3101 3101 3101 3100 3100 3100 3100 3100 3100 3100 3100 3099
3091 3092 3092 3093 3094 3094 3095 3095 3095 3096 3096 3096 3096 3096 3096 3096 3096 3096 3096 3096 3096 3096 3096 3096 3097 3097 3097 3097 3097 3097 3096 3096 3096 3096 3096 3096 3096 3096 3096 3096 3096 3095
3088 3089 3089 3090 3091 3091 3091 3092 3092 3092 3092 3092 3092 3092 3092 3092 3092 3092 3092 3092 3092 3093 3093 3093 3093 3094 3094 3094 3094 3093 3092 3092 3092 3092 3092 3092 3092 3092 3092 3092 3092 3092
3085 3086 3086 3087 3087 3088 3088 3088 3089 3089 3089 3089 3089 3089 3089 3089 3089 3089 3089 3089 3089 3090 3090 3090 3090 3091 3091 3090 3090 3089 3088 3088 3088 3089 3088 3088 3088 3088 3088 3088 3088 3088
3082 3083 3083 3083 3084 3084 3085 3085 3085 3085 3085 3086 3086 3086 3086 3086 3086 3086 3086 3086 3086 3086 3086 3086 3087 3087 3087 3087 3087 3086 3085 3085 3085 3084 3084 3084 3084 3084 3084 3084 3084 3084
3079 3079 3079 3079 3080 3080 3080 3081 3081 3082 3082 3082 3082 3083 3083 3083 3082 3083 3083 3083 3083 3083 3083 3083 3083 3083 3083 3083 3083 3083 3082 3081 3081 3081 3080 3080 3080 3079 3080 3080 3080 3080
3075 3075 3076 3076 3076 3076 3076 3077 3077 3078 3078 3078 3078 3079 3079 3079 3079 3079 3079 3080 3080 3080 3080 3080 3080 3079 3079 3079 3079 3079 3078 3078 3077 3077 3076 3076 3075 3075 3075 3075 3075 3075
3071 3072 3072 3072 3072 3072 3072 3073 3074 3074 3074 3074 3074 3074 3074 3074 3074 3075 3075 3075 3076 3076 3076 3076 3076 3076 3075 3075 3075 3075 3074 3074 3073 3073 3072 3072 3071 3071 3071 3070 3070 3070
3067 3068 3068 3068 3068 3069 3069 3070 3070 3070 3070 3070 3070 3069 3069 3069 3070 3070 3070 3071 3071 3071 3071 3071 3071 3071 3071 3071 3070 3070 3070 3070 3069 3069 3068 3067 3067 3067 3067 3066 3066 3065
Wind_Speed
11 9 6 4 5 6 5 2 2 3 4 5 6 7 7 7 7 7 8 8 8 8 7 7 7 6 6 6 6 5 5 4 3 2 1 0 1 1 1 1 1 2
14 12 9 6 5 6 6 4 2 1 2 4 5 5 6 6 6 6 6 6 6 6 7 7 7 7 7 7 6 6 6 6 5 4 3 3 2 2 2 1 1 1
18 16 12 9 8 7 7 6 4 4 2 1 2 3 4 5 5 5 5 4 4 4 5 5 6 6 6 6 6 5 6 6 5 5 4 4 4 3 4 4 3 3
22 19 14 13 12 10 9 8 7 6 5 4 2 2 2 3 3 4 4 5 4 3 3 2 2 3 4 4 5 5 5 6 6 6 6 6 5 5 5 5 5 5
25 22 18 17 15 13 12 11 9 9 7 6 5 4 3 3 3 3 3 4 5 6 5 4 2 1 1 1 2 2 3 4 5 6 6 5 6 6 6 6 6 6
28 26 23 21 19 16 14 13 12 11 10 9 8 6 6 5 5 5 5 5 6 8 8 8 8 7 5 4 3 2 1 1 2 3 3 3 4 4 4 4 4 4
30 30 28 25 21 17 15 15 14 13 12 11 10 9 8 8 8 7 7 8 9 9 9 10 11 12 11 9 8 7 6 4 3 3 2 1 1 2 1 1 2 2
31 32 31 28 23 19 18 17 16 15 14 12 11 10 10 11 12 11 11 11 11 11 11 12 13 13 13 13 13 11 10 9 8 7 6 5 5 4 4 4 4 4
29 32 31 29 26 23 22 20 20 19 16 13 12 13 13 13 15 16 17 16 15 16 16 15 15 15 14 15 15 15 14 14 13 12 10 9 8 8 7 7 7 7
23 28 30 29 28 27 25 23 24 23 19 17 19 19 17 16 18 19 19 20 21 21 21 20 18 17 16 16 16 17 17 16 15 13 13 12 11 10 10 10 9 9
20 26 28 26 25 25 23 22 25 24 23 24 24 21 20 20 20 20 21 22 23 24 24 22 20 19 19 20 21 21 19 18 17 15 14 14 13 12 12 13 12 12
15 18 20 17 17 18 18 21 25 26 27 27 23 19 19 21 21 21 22 22 23 23 23 21 19 18 19 20 23 26 24 21 19 18 16 16 15 15 15 15 15 15
12 13 14 14 14 15 16 20 24 26 27 25 20 17 18 19 20 21 20 20 19 18 16 14 15 15 15 14 15 20 24 25 24 22 20 19 19 18 18 18 18 18
10 12 13 13 12 12 13 15 16 18 19 18 15 14 16 18 19 19 18 17 17 15 13 13 13 14 13 12 11 11 15 21 24 24 24 24 21 20 19 19 20 20
7 9 10 9 8 8 9 9 9 10 10 10 10 11 14 15 16 16 16 15 15 14 13 14 14 15 15 15 15 12 11 14 16 18 22 24 23 22 22 23 23 23
7 8 9 9 9 9 8 9 9 10 10 10 11 11 13 14 14 15 15 15 16 15 15 15 16 18 19 18 19 18 16 15 15 16 18 21 23 24 25 26 26 25
8 10 10 11 11 11 11 12 13 13 14 14 14 15 16 16 16 16 17 18 18 18 19 19 20 21 22 22 21 20 19 19 19 20 21 22 24 25 26 27 27 27
9 10 11 12 12 13 13 14 14 15 16 17 18 18 19 19 19 19 19 20 20 21 21 22 22 23 23 23 23 23 23 23 23 24 24 25 26 27 27 28 28 28
11 12 12 13 13 14 15 15 17 18 18 19 20 20 20 21 21 21 21 21 22 22 23 23 23 24 24 24 24 24 25 26 26 26 26 27 27 27 27 28 29 30
13 13 14 14 14 14 15 16 16 17 18 19 20 20 21 21 21 21 22 22 22 22 22 23 23 23 23 23 23 24 26 26 26 26 27 28 28 28 28 29 30 31
16 16 16 16 16 15 15 15 15 15 16 17 18 18 19 20 21 22 22 22 22 22 21 21 21 21 21 21 22 23 25 25 25 25 25 27 27 28 28 29 30 30
18 17 17 18 18 18 18 17 16 16 16 17 17 18 18 19 20 21 21 21 21 22 22 22 21 20 20 20 22 23 24 25 25 25 25 26 26 27 28 28 29 29
18 18 19 19 20 20 20 19 19 18 18 19 19 19 20 21 21 22 21 21 21 22 22 22 21 21 20 20 21 22 24 25 25 26 27 27 28 28 28 27 27 27
21 21 21 21 21 21 21 21 21 21 21 22 22 22 23 24 24 24 23 23 23 23 23 23 22 22 22 22 22 22 23 24 24 25 26 27 28 28 28 27 27 27
24 23 23 23 22 22 22 22 22 22 23 24 25 25 26 26 27 27 26 25 25 24 25 25 25 25 26 26 25 25 25 25 25 25 26 27 28 28 29 29 29 29
26 25 25 25 24 24 23 23 23 24 24 24 25 26 27 28 28 29 29 29 28 28 28 28 28 28 28 28 28 28 27 27 26 27 28 29 29 30 30 31 31 32
Wind_Direction
233 234 237 260 287 294 285 289 349 14 26 32 29 27 28 31 36 41 46 50 54 62 69 70 71 72 69 67 67 69 72 77 83 82 78 27 316 300 292 256 225 215
225 226 218 218 246 269 264 242 213 225 4 19 29 32 30 27 27 34 41 43 44 49 58 65 68 69 67 64 64 67 71 73 76 78 78 74 65 50 45 60 85 143
222 229 219 202 210 237 246 239 220 202 209 295 358 13 19 25 22 21 24 23 27 36 46 56 65 72 78 78 74 73 76 79 83 83 76 71 67 63 59 58 59 65
222 226 216 199 199 212 226 233 237 231 217 217 234 292 332 356 0 358 355 350 351 354 7 32 49 59 72 83 86 85 82 82 84 82 79 78 74 67 64 62 61 60
223 223 215 203 198 204 216 223 231 241 242 241 242 247 265 290 314 325 322 321 325 323 319 313 303 307 330 52 79 83 88 88 86 85 85 85 84 79 74 74 72 68
224 225 222 212 201 200 214 223 226 233 242 250 258 263 266 271 279 288 298 308 317 320 317 310 300 288 274 258 249 253 222 143 119 114 109 100 101 99 94 91 92 87
223 224 229 227 214 203 212 224 228 231 236 242 251 260 268 274 276 281 296 310 315 315 309 301 294 287 279 269 260 253 245 241 240 231 229 225 186 171 180 177 173 187
225 226 231 233 225 215 215 223 228 230 231 232 238 250 265 276 281 286 294 302 303 301 297 290 283 279 277 274 271 266 260 255 251 248 251 257 262 263 259 257 260 266
225 227 228 230 232 227 220 222 229 233 230 232 245 256 268 281 290 294 296 297 295 292 291 286 279 273 270 268 266 266 264 262 257 253 249 248 250 255 259 262 268 279
219 225 227 229 237 239 234 232 240 244 239 242 254 262 270 283 292 294 294 295 294 290 287 283 278 271 265 259 257 258 257 254 252 250 249 247 247 250 255 260 264 270
214 224 228 229 236 243 243 243 249 252 245 241 245 254 267 280 286 290 292 292 292 289 284 281 278 273 268 260 254 252 251 247 243 241 242 247 252 256 258 258 260 263
217 232 239 241 245 250 250 249 251 254 253 249 245 249 265 276 281 286 288 288 289 288 283 279 277 276 274 268 257 251 248 243 237 235 236 241 248 254 258 258 259 261
226 237 244 246 249 255 255 252 251 253 255 257 254 256 267 273 275 278 280 280 284 284 278 272 272 274 273 270 261 255 249 242 236 233 236 241 245 247 252 255 256 259
219 225 230 233 237 246 250 252 255 256 258 261 262 264 266 266 267 269 272 273 273 271 265 260 261 263 263 262 263 262 249 240 237 236 237 242 244 244 247 251 255 258
201 212 222 228 234 241 246 255 266 270 270 269 266 261 257 257 259 261 264 265 263 261 259 254 251 254 257 257 257 257 247 236 236 236 236 239 243 247 252 256 259 262
216 219 227 234 242 248 251 257 265 269 269 267 264 259 256 256 257 260 264 267 265 263 259 254 252 253 255 256 255 255 255 250 246 243 238 239 244 251 256 259 262 265
233 231 233 237 241 246 249 252 256 258 260 262 264 264 264 265 265 267 268 268 267 266 263 259 258 258 258 258 257 258 259 259 257 253 249 247 249 253 257 262 265 267
242 239 240 241 241 243 245 247 249 250 252 255 258 260 262 263 264 265 265 266 265 264 262 261 260 260 261 262 262 262 262 260 257 255 255 255 255 256 259 263 267 269
245 245 245 246 246 247 248 248 249 250 252 253 255 257 259 260 260 260 259 260 260 261 261 261 260 260 260 261 262 262 261 259 258 257 259 260 260 259 260 263 266 267
246 248 249 248 248 249 251 252 254 255 256 257 258 260 261 262 262 261 260 258 258 258 258 259 261 261 262 262 261 261 260 260 260 260 261 261 261 260 259 260 261 262
248 251 253 253 252 251 252 255 257 259 261 261 261 263 264 265 266 266 266 266 266 265 264 262 262 261 262 262 262 262 263 264 264 262 261 261 261 262 261 261 260 259
249 253 255 255 255 254 254 256 257 260 262 263 263 264 264 264 265 266 267 268 270 271 271 270 268 265 262 260 259 260 262 264 265 264 263 261 261 261 262 263 263 262
249 251 253 255 257 257 257 258 258 261 263 264 264 264 262 261 261 261 260 260 261 262 265 267 269 269 267 264 262 261 262 262 263 263 263 262 261 261 261 262 265 267
246 248 251 255 258 260 262 263 264 266 268 269 270 269 267 265 263 261 259 257 256 257 259 261 264 266 268 268 267 267 266 266 265 264 264 264 264 265 265 263 263 264
246 247 250 252 255 259 263 266 268 271 273 275 276 276 274 272 271 269 267 266 264 264 264 265 266 266 268 269 270 270 270 271 270 268 267 267 267 267 268 267 265 264
248 249 251 252 256 259 263 267 269 271 273 275 276 276 276 276 275 275 274 274 273 273 273 272 271 269 269 269 270 271 271 271 271 270 268 267 266 266 267 267 268 266